Location: Del Amo
(33.8464°N, 118.2104°W)
Time: 17:51:45
(UTC+00:00)

Tiros 1 despin weight - Pass Details

Date: 17 September 2024
Orbit: 572 x 614 km, 48.2° (Epoch: 12 October)

Event Time Altitude Azimuth Distance (km) Brightness Sun altitude
Exits shadow 10:35:24 14° 32° (NNE) 1,713 ? -36.7°
Drops below altitude 10° 10:36:10 10° 37° (NE) 1,974 ? -36.5°
Sets 10:38:40 0° 47° (NE) 2,884 ? -36.1°
